Home > Weather > Columbia > Past weeks

Flag for USA Past Weather in Columbia, South Carolina, USA — Yesterday and Last 2 Weeks

Now
88 °F

Passing clouds.


Feels Like: 86 °F
Forecast: 62 / 88 °F
Wind: 5 mph from Northwest

Location: Columbia Owens Downtown Airport

Current Time: May 25, 2016 at 3:06:36 PM

Latest Report: May 25, 2016 at 1:53 PM


Visibility: 10 mi

Pressure: 30.21 "Hg

Humidity: 30%

Dew Point: 53 °F

Location of ColumbiaLocation

Past Weather in Columbia — Graph

°F

Columbia Temperature Yesterday

Maximum temperature yesterday: 85 °F (at 3:53 PM)
Minimum temperature yesterday: 58 °F (at 4:53 AM)
Average temperature yesterday: 72 °F

High & Low Weather Summary for the Past Weeks

 TemperatureHumidityPressure
High89 °F (May 11, 3:53 PM)94% (May 19, 8:53 AM)30.25 "Hg (May 19, 8:53 AM)
Low56 °F (May 15, 6:53 AM)19% (May 14, 4:53 PM)29.79 "Hg (May 14, 6:53 PM)
Average71 °F66%30.04 "Hg
* Reported May 10 1:53 PM — May 25 1:53 PM, Columbia, Weather by CustomWeather, © 2016

Note: Actual official high and low records may vary slightly from our data, if they occured in-between our weather recording intervals... More about our weather records

Advertising

Columbia Weather History for the Previous 24 Hours

Scroll right to see more
 ConditionsComfort  
Time TempWeatherWind HumidityBarometerVisibility
1:53 PM
Wed, May 25
88 °FPassing clouds.5 mph30%30.21 "Hg10 mi
12:53 PM86 °FPartly sunny.3 mph33%30.23 "Hg10 mi
11:53 AM85 °FSunny.6 mph39%30.24 "Hg10 mi
10:53 AM83 °FSunny.6 mph44%30.24 "Hg10 mi
9:53 AM79 °FSunny.No wind56%30.24 "Hg10 mi
8:53 AM72 °FSunny.5 mph71%30.24 "Hg10 mi
7:53 AM67 °FSunny.No wind87%30.22 "Hg8 mi
6:53 AM63 °FClear.No wind90%30.21 "Hg7 mi
5:53 AM63 °FClear.No wind90%30.18 "Hg7 mi
4:53 AM63 °FClear.No wind90%30.17 "Hg7 mi
3:53 AM64 °FClear.No wind90%30.18 "Hg8 mi
2:53 AM65 °FClear.No wind91%30.18 "Hg10 mi
1:53 AM67 °FClear.No wind85%30.17 "Hg10 mi
12:53 AM67 °FClear.No wind81%30.17 "Hg10 mi
11:53 PM
Tue, May 24
70 °FClear.No wind71%30.17 "Hg10 mi
10:53 PM70 °FClear.No wind68%30.16 "Hg10 mi
9:53 PM73 °FClear.No wind62%30.14 "Hg10 mi
8:53 PM76 °FSunny.No wind54%30.12 "Hg10 mi
7:53 PM82 °FSunny.3 mph40%30.11 "Hg10 mi
6:53 PM84 °FSunny.5 mph35%30.09 "Hg10 mi
5:53 PM84 °FSunny.3 mph32%30.09 "Hg10 mi
4:53 PM85 °FPassing clouds.7 mph30%30.09 "Hg10 mi
3:53 PM85 °FSunny.5 mph28%30.11 "Hg10 mi
Weather by CustomWeather, © 2016

See weather overviewHow to use our weather pages